Simultaneous Nadir Overpasses (SNOs) Predictions

Prediction of SNOs between GOES-15 and NPP Satellite Orbit:

Table of predicted SNOs for the next 14.0 days since TLE Epoch: 2/2/2014
Index Date Time (GOES-15) GOES-15 Lat,Lon NPP Lat,Lon Distance(km) Time Diff (sec)
1 02/03/2014 10:27:39 -0.11,-135.38 -0.12,-135.27 11.96 80
2 02/05/2014 22:30:55 0.11,-135.42 -0.01,-136.06 71.49 80
3 02/06/2014 22:14:52 0.10,-135.43 1.00,-131.53 445.75 80
4 02/08/2014 10:36:40 -0.10,-135.42 0.23,-136.78 155.86 80
5 02/09/2014 10:15:17 -0.10,-135.42 -0.78,-132.25 360.89 80
6 02/10/2014 22:37:15 0.09,-135.44 -0.41,-137.55 240.91 80
7 02/11/2014 22:21:11 0.09,-135.45 0.61,-133.02 275.74 80
8 02/13/2014 10:43:01 -0.09,-135.43 0.56,-138.29 326.32 80
9 02/14/2014 10:21:37
